Evansville, IN

8:30 AM CST on February 13, 2016 (GMT -0600)
Evansville Regional

Weather History for KEVV - January, 2014

Change the Weather History Date:

Friday, January 10, 2014

  Actual Average Record
Temperature  
Mean Temperature 43 °F 32 °F  
Max Temperature 50 °F 41 °F 62 °F (1950)
Min Temperature 35 °F 24 °F -11 °F (1962)
Degree Days  
Heating Degree Days 22 33  
Month to date heating degree days 389 325  
Since 1 July heating degree days 2223 2097  
Cooling Degree Days 0 0  
Month to date cooling degree days 0 0  
Year to date cooling degree days 0 0  
Moisture  
Dew Point 41 °F    
Average Humidity 85    
Maximum Humidity 93    
Minimum Humidity 76    
Precipitation  
Precipitation 0.60 in 0.10 in 8.90 in (2016)
Month to date precipitation 1.49 0.99  
Year to date precipitation 1.49 0.99  
Snow  
Snow 0.00 in 0.10 in 4.70 in (1955)
Month to date snowfall T 1.1  
Since 1 July snowfall 7.2 4.6  
Snow Depth 0.00 in    
Sea Level Pressure  
Sea Level Pressure 29.95 in    
Wind  
Wind Speed 6 mph (SE)    
Max Wind Speed 15 mph    
Max Gust Speed 21 mph    
Visibility 7 miles    
Events Rain    
T = Trace of Precipitation, MM = Missing Value Source: NWS Daily Summary

Daily Weather History Graph

Daily Weather History Graph

Search for Another Location

Airport or City:

Trip Planner

Search our weather history database for the weather conditions in past years. The results will help you decide how hot, cold, wet, or windy it might be!

Date:

Astronomy

Jan. 10, 2014 Rise Set
Actual Time 7:06 AM CST 4:49 PM CST
Civil Twilight 6:37 AM CST 5:18 PM CST
Nautical Twilight 6:04 AM CST 5:51 PM CST
Astronomical Twilight 5:32 AM CST 6:22 PM CST
Moon 12:51 PM CST (1/10) 2:14 AM CST (1/10)
Length of Visible Light 10h 41m
Length of Day
9h 43m
Waxing Gibbous, 75% of the Moon is Illuminated
Jan 10
Waxing Gibbous
Jan 15
Full
Jan 23
Last Quarter
Jan 30
New
Feb 6
First Quarter

Hourly Weather History & Observations

Time (CST) Temp. Windchill Dew Point Humidity Pressure Visibility Wind Dir Wind Speed Gust Speed Precip Events Conditions
12:12 AM 35.1 °F 32.2 °F 30.0 °F 82% 30.22 in 10.0 mi SE 3.5 mph - N/A   Overcast
12:54 AM 36.0 °F 32.1 °F 30.0 °F 79% 30.23 in 10.0 mi SE 4.6 mph - N/A   Overcast
1:54 AM 37.0 °F 32.4 °F 30.0 °F 76% 30.22 in 10.0 mi SE 5.8 mph - N/A   Overcast
2:54 AM 37.0 °F 34.5 °F 30.9 °F 79% 30.21 in 10.0 mi ESE 3.5 mph - N/A   Overcast
3:54 AM 37.0 °F 34.5 °F 30.9 °F 79% 30.19 in 10.0 mi SE 3.5 mph - N/A   Overcast
4:54 AM 37.9 °F 32.7 °F 32.0 °F 79% 30.18 in 10.0 mi SE 6.9 mph - N/A   Overcast
5:11 AM 39.0 °F 34.0 °F 32.0 °F 76% 30.16 in 10.0 mi SE 6.9 mph - N/A   Overcast
5:41 AM 39.0 °F 34.8 °F 33.1 °F 79% 30.15 in 10.0 mi East 5.8 mph - N/A   Overcast
5:54 AM 39.0 °F 36.8 °F 33.1 °F 79% 30.16 in 10.0 mi East 3.5 mph - N/A   Overcast
6:54 AM 39.0 °F 36.8 °F 33.1 °F 79% 30.15 in 10.0 mi ESE 3.5 mph - N/A   Overcast
7:54 AM 41.0 °F 37.1 °F 35.1 °F 79% 30.14 in 8.0 mi SE 5.8 mph - N/A   Overcast
8:54 AM 43.0 °F 39.5 °F 37.9 °F 82% 30.13 in 7.0 mi SE 5.8 mph - N/A   Overcast
9:54 AM 44.1 °F 40.1 °F 39.0 °F 82% 30.12 in 7.0 mi SE 6.9 mph - N/A   Overcast
10:54 AM 46.0 °F 42.5 °F 41.0 °F 83% 30.08 in 6.0 mi SE 6.9 mph - N/A   Haze
11:36 AM 46.9 °F - 42.1 °F 83% 30.04 in 7.0 mi SSE 10.4 mph 17.3 mph N/A   Overcast
11:54 AM 46.9 °F - 42.1 °F 83% 30.00 in 7.0 mi SE 9.2 mph - N/A   Overcast
12:29 PM 46.9 °F - 43.0 °F 86% 29.98 in 6.0 mi SE 9.2 mph - 0.00 in Rain Light Rain
12:54 PM 46.9 °F - 43.0 °F 86% 29.96 in 6.0 mi SE 5.8 mph - 0.01 in Rain Light Rain
1:43 PM 46.9 °F - 43.0 °F 86% 29.95 in 6.0 mi SSE 9.2 mph - 0.01 in Rain Light Rain
1:54 PM 46.9 °F - 43.0 °F 86% 29.95 in 7.0 mi SSE 6.9 mph - 0.01 in Rain Light Rain
2:54 PM 46.9 °F - 44.1 °F 90% 29.92 in 4.0 mi ESE 4.6 mph - 0.03 in Rain Light Rain
3:19 PM 46.9 °F - 44.1 °F 90% 29.91 in 5.0 mi ESE 5.8 mph - 0.00 in   Overcast
3:54 PM 46.9 °F - 44.1 °F 90% 29.91 in 5.0 mi SSE 5.8 mph - 0.01 in   Overcast
4:54 PM 46.9 °F - 44.1 °F 90% 29.88 in 7.0 mi SE 6.9 mph - 0.00 in Rain Light Rain
5:28 PM 46.9 °F - 44.1 °F 90% 29.84 in 6.0 mi ESE 4.6 mph - 0.00 in   Overcast
5:40 PM 46.9 °F - 44.1 °F 90% 29.84 in 6.0 mi SE 4.6 mph - 0.00 in   Mostly Cloudy
5:54 PM 46.9 °F - 44.1 °F 90% 29.83 in 6.0 mi SE 5.8 mph - 0.00 in   Mostly Cloudy
6:54 PM 48.0 °F - 44.1 °F 86% 29.79 in 7.0 mi SE 6.9 mph - 0.01 in Rain Light Rain
7:54 PM 46.9 °F - 44.1 °F 90% 29.75 in 3.0 mi SE 8.1 mph - 0.11 in Rain Heavy Rain
8:29 PM 48.0 °F - 46.0 °F 93% 29.74 in 2.5 mi Variable 4.6 mph - 0.11 in Rain Heavy Rain
8:42 PM 48.0 °F - 46.0 °F 93% 29.73 in 3.0 mi South 4.6 mph - 0.17 in Rain Heavy Rain
8:51 PM 48.2 °F - 46.4 °F 93% 29.74 in 3.0 mi SSW 5.8 mph - 0.21 in Rain Rain
8:54 PM 48.9 °F - 46.0 °F 90% 29.74 in 4.0 mi South 4.6 mph - 0.22 in Rain Heavy Rain
9:13 PM 48.9 °F - 46.0 °F 90% 29.75 in 5.0 mi WSW 8.1 mph - 0.03 in Rain Light Rain
9:46 PM 48.0 °F - 46.0 °F 93% 29.74 in 6.0 mi South 6.9 mph - 0.06 in Rain Light Rain
9:54 PM 48.0 °F - 46.0 °F 93% 29.73 in 5.0 mi South 5.8 mph - 0.07 in Rain Rain
10:54 PM 48.0 °F - 46.0 °F 93% 29.68 in 4.0 mi SE 12.7 mph - 0.06 in Rain Light Rain
11:54 PM 50.0 °F - 46.9 °F 89% 29.65 in 10.0 mi South 9.2 mph - 0.07 in   Overcast